TimeMDT,TemperatureF,Dew PointF,Humidity,Sea Level PressureIn,VisibilityMPH,Wind Direction,Wind SpeedMPH,Gust SpeedMPH,PrecipitationIn,Events,Conditions,WindDirDegrees,DateUTC
12:53 AM,62.1,55.0,78,29.98,10.0,North,3.5,-,N/A,,Clear,350,2013-09-04 06:53:00
1:53 AM,61.0,54.0,78,29.98,10.0,NNW,4.6,-,N/A,,Clear,330,2013-09-04 07:53:00
2:53 AM,63.0,54.0,72,29.97,10.0,NW,4.6,-,N/A,,Clear,320,2013-09-04 08:53:00
3:53 AM,63.0,52.0,67,29.99,10.0,NW,4.6,-,N/A,,Clear,320,2013-09-04 09:53:00
4:53 AM,60.1,52.0,75,30.00,10.0,NW,3.5,-,N/A,,Clear,310,2013-09-04 10:53:00
5:53 AM,61.0,52.0,72,30.02,10.0,NNW,5.8,-,N/A,,Clear,330,2013-09-04 11:53:00
6:53 AM,60.1,53.1,78,30.04,10.0,Calm,Calm,-,N/A,,Clear,0,2013-09-04 12:53:00
7:53 AM,69.1,57.0,65,30.04,10.0,Calm,Calm,-,N/A,,Clear,0,2013-09-04 13:53:00
8:53 AM,75.0,57.0,53,30.04,10.0,Calm,Calm,-,N/A,,Clear,0,2013-09-04 14:53:00
9:53 AM,79.0,55.9,45,30.04,10.0,East,5.8,-,N/A,,Clear,100,2013-09-04 15:53:00
10:53 AM,82.0,55.9,41,30.04,10.0,Variable,5.8,-,N/A,,Clear,0,2013-09-04 16:53:00
11:53 AM,84.0,57.9,41,30.04,10.0,South,9.2,-,N/A,,Scattered Clouds,190,2013-09-04 17:53:00
12:53 PM,84.0,57.0,40,30.03,10.0,SE,9.2,-,N/A,,Mostly Cloudy,140,2013-09-04 18:53:00
1:53 PM,84.0,57.9,41,30.03,10.0,Variable,6.9,-,N/A,,Overcast,0,2013-09-04 19:53:00
2:53 PM,79.0,57.9,48,30.04,10.0,ENE,12.7,-,N/A,,Overcast,60,2013-09-04 20:53:00
3:53 PM,78.1,57.9,50,30.04,10.0,ENE,9.2,-,N/A,,Mostly Cloudy,70,2013-09-04 21:53:00
4:53 PM,80.1,57.0,45,30.04,10.0,East,10.4,-,N/A,,Clear,100,2013-09-04 22:53:00
5:53 PM,79.0,57.0,47,30.04,10.0,ESE,12.7,-,N/A,,Clear,110,2013-09-04 23:53:00
6:53 PM,70.0,60.1,71,30.10,5.0,NNW,12.7,21.9,0.00,Rain,Light Rain,340,2013-09-05 00:53:00
6:58 PM,64.4,62.6,94,30.29,1.8,North,8.1,21.9,0.04,Rain,Heavy Rain,10,2013-09-05 00:58:00
7:15 PM,62.6,60.8,94,30.27,4.0,ENE,16.1,27.6,0.19,Rain,Light Rain,60,2013-09-05 01:15:00
7:32 PM,64.4,60.8,88,30.26,10.0,East,13.8,-,0.19,,Partly Cloudy,100,2013-09-05 01:32:00
7:53 PM,63.0,59.0,87,30.08,10.0,East,8.1,-,0.19,,Clear,80,2013-09-05 01:53:00
8:53 PM,63.0,62.1,97,30.07,10.0,North,4.6,-,0.00,Rain,Light Rain,360,2013-09-05 02:53:00
9:53 PM,64.0,62.1,93,30.08,10.0,Calm,Calm,-,0.00,Rain,Light Rain,0,2013-09-05 03:53:00
10:53 PM,62.1,61.0,96,30.07,7.0,Calm,Calm,-,N/A,,Clear,0,2013-09-05 04:53:00
11:53 PM,61.0,60.1,97,30.06,8.0,North,4.6,-,N/A,,Clear,10,2013-09-05 05:53:00